Flag for Argentina

Past Weather in 42°44'11.233"S, 65°01'26.242"W, Argentina — Yesterday and Last 2 Weeks

Now
49 °F

Overcast.


Feels Like: 44 °F
Forecast: 49 / 39 °F
Wind: 12 mph from Southwest

Location: Trelew Aerodrome
Current Time: Oct 1, 2020 at 3:40:59 pm
Latest Report: Oct 1, 2020 at 3:00 pm
Visibility: 19 mi
Pressure30.01 "Hg
Humidity: 23%
Dew Point: 13 °F
Location of 42°44'11.233"S, 65°01'26.242"WLocation

Past Weather in 42°44'11.233"S, 65°01'26.242"W — Graph

°F

42°44'11.233"S, 65°01'26.242"W Temperature Yesterday

Maximum temperature yesterday: 57 °F (at 5:00 pm)
Minimum temperature yesterday: 44 °F (at 7:00 am)
Average temperature yesterday: 50 °F

High & Low Weather Summary for the Past Weeks

 TemperatureHumidityPressure
High80 °F (Sep 24, 6:00 pm)100% (Sep 30, 3:00 am)30.31 "Hg (Sep 30, 3:00 am)
Low28 °F (Sep 20, 7:00 am)7% (Sep 24, 6:00 pm)29.41 "Hg (Sep 17, 4:00 am)
Average53 °F44%29.90 "Hg
* Reported Sep 16 2:00 pm — Oct 1 2:00 pm, 42°44'11.233"S, 65°01'26.242"W. Weather by CustomWeather, © 2020

Note: Actual official high and low records may vary slightly from our data, if they occured in-between our weather recording intervals... More about our weather records

42°44'11.233"S, 65°01'26.242"W Weather History for the Previous 24 Hours

Scroll right to see more
 ConditionsComfort  
Time TempWeatherWind HumidityBarometerVisibility
2:00 pm
Thu, Oct 1
48 °FOvercast.10 mph25%30.01 "Hg19 mi
1:00 pm47 °FOvercast.7 mph28%29.99 "Hg19 mi
12:00 pm46 °FOvercast.10 mph32%29.98 "Hg19 mi
11:00 am46 °FOvercast.12 mph34%29.96 "Hg19 mi
10:00 am44 °FOvercast.16 mph44%29.95 "Hg19 mi
9:00 am42 °FOvercast.21 mph50%29.93 "Hg19 mi
8:00 am42 °FOvercast.12 mph52%29.90 "Hg19 mi
7:00 am42 °FOvercast.13 mph55%29.87 "Hg19 mi
6:00 am41 °FOvercast.5 mph59%29.84 "Hg19 mi
5:00 am42 °FPassing clouds.6 mph61%29.83 "Hg19 mi
4:00 am43 °FPassing clouds.10 mph68%29.80 "Hg19 mi
3:00 am46 °FPassing clouds.17 mph58%29.80 "Hg19 mi
2:00 am51 °FPassing clouds.12 mph33%29.76 "Hg19 mi
1:00 am52 °FPassing clouds.14 mph31%29.71 "Hg19 mi
12:00 am53 °FPassing clouds.20 mph31%29.70 "Hg19 mi
11:00 pm
Wed, Sep 30
53 °FPassing clouds.9 mph30%29.69 "Hg19 mi
10:00 pm54 °FPassing clouds.17 mph29%29.67 "Hg19 mi
9:00 pm55 °FPassing clouds.15 mph35%29.64 "Hg19 mi
8:00 pm55 °FPassing clouds.17 mph27%29.62 "Hg19 mi
7:00 pm57 °FPassing clouds.22 mph22%29.62 "Hg19 mi
6:00 pm57 °FPartly sunny.20 mph24%29.62 "Hg19 mi
5:00 pm57 °FScattered clouds.24 mph23%29.63 "Hg19 mi
4:00 pm55 °FPartly sunny.30 mph31%29.66 "Hg19 mi
3:00 pm55 °FPartly sunny.28 mph25%29.69 "Hg19 mi
Weather by CustomWeather, © 2020

See weather overview